This is the latest recevied weather packets stored in our database for station/object KG7FOQ-13. If no packets are shown the sender has not sent any weather packets the latest 10 day(s).
| Time | Temp. | Humidity | Pressure | Rain* | Wind** | Luminosity | Snow |
|---|---|---|---|---|---|---|---|
| 1777497371 | 15.56° C | 29% | 1019.2 hPa | 0 mm | - | - | - |
| 1777497333 | 15.56° C | 29% | 1019.2 hPa | 0 mm | - | - | - |
| 1777497033 | 16.11° C | 30% | 1019.2 hPa | 0 mm | - | - | - |
| 1777496732 | 16.11° C | 33% | 1019.2 hPa | 0 mm | - | - | - |
| 1777496431 | 15.56° C | 31% | 1019.3 hPa | 0 mm | - | - | - |
| 1777496131 | 15.56° C | 30% | 1019.2 hPa | 0 mm | - | - | - |
| 1777495830 | 15° C | 30% | 1019.2 hPa | 0 mm | - | - | - |
| 1777495530 | 15.56° C | 29% | 1019.4 hPa | 0 mm | - | - | - |
| 1777495229 | 16.11° C | 31% | 1019.3 hPa | 0 mm | - | - | - |
| 1777494969 | 15.56° C | 31% | 1019.3 hPa | 0 mm | - | - | - |
| 1777494929 | 15.56° C | 31% | 1019.3 hPa | 0 mm | - | - | - |
| 1777494626 | 16.11° C | 31% | 1019.3 hPa | 0 mm | - | - | - |
| 1777494326 | 15.56° C | 31% | 1019.4 hPa | 0 mm | - | - | - |
| 1777494026 | 15.56° C | 32% | 1019.4 hPa | 0 mm | - | - | - |
| 1777493725 | 15.56° C | 30% | 1019.4 hPa | 0 mm | - | - | - |
| 1777493424 | 15.56° C | 32% | 1019.4 hPa | 0 mm | - | - | - |
| 1777493124 | 15.56° C | 31% | 1019.4 hPa | 0 mm | - | - | - |
| 1777492823 | 15° C | 31% | 1019.5 hPa | 0 mm | - | - | - |
| 1777492523 | 15° C | 31% | 1019.5 hPa | 0 mm | - | - | - |
| 1777492222 | 15° C | 30% | 1019.5 hPa | 0 mm | - | - | - |
| 1777491621 | 15° C | 31% | 1019.7 hPa | 0 mm | - | - | - |
| 1777491321 | 14.44° C | 30% | 1019.7 hPa | 0 mm | - | - | - |
| 1777491061 | 15° C | 30% | 1019.9 hPa | 0 mm | - | - | - |
| 1777491020 | 15° C | 30% | 1019.9 hPa | 0 mm | - | - | - |
| 1777490720 | 15° C | 30% | 1020 hPa | 0 mm | - | - | - |
* Rain latest hour (hover to see other rain measurements)
** Current wind speed in m/s (hover to see current wind gust speed)